, AK

(GMT )
Shemya

Weather History for PASY - December, 2012

Change the Weather History Date:

Wednesday, December 5, 2012

  Actual Average Record
Temperature  
Mean Temperature 34 °F -  
Max Temperature 41 °F 36 °F 44 °F (1950)
Min Temperature 28 °F 30 °F 22 °F (1949)
Degree Days  
Heating Degree Days 30    
Moisture  
Dew Point 29 °F    
Average Humidity 82    
Maximum Humidity 93    
Minimum Humidity 63    
Precipitation  
Precipitation 0.00 in - - ()
Sea Level Pressure  
Sea Level Pressure 30.08 in    
Wind  
Wind Speed 9 mph (NNE)    
Max Wind Speed 15 mph    
Max Gust Speed -    
Visibility 10 miles    
Events Rain , Snow    
Averages and records for this station are not official NWS values.
T = Trace of Precipitation, MM = Missing Value Source: NWS Daily Summary

Daily Weather History Graph

Daily Weather History Graph

Search for Another Location

Airport or City:

Trip Planner

Search our weather history database for the weather conditions in past years. The results will help you decide how hot, cold, wet, or windy it might be!

Date:

Astronomy

Dec. 04, 2012 Rise Set
Actual Time 10:17 AM HST 6:10 PM HST
Civil Twilight 9:36 AM HST 6:51 PM HST
Nautical Twilight 8:53 AM HST 7:34 PM HST
Astronomical Twilight 8:11 AM HST 8:16 PM HST
Moon 12:48 AM HST (12/5) 2:10 PM HST (12/5)
Length of Visible Light 9h 14m
Length of Day
7h 52m
Waning Gibbous, 58% of the Moon is Illuminated
Dec 5
Waning Gibbous
Dec 6
Last Quarter
Dec 12
New
Dec 19
First Quarter
Dec 28
Full

Hourly Weather History & Observations

Time (HST) Temp. Windchill Dew Point Humidity Pressure Visibility Wind Dir Wind Speed Gust Speed Precip Events Conditions
12:56 AM 30.0 °F 22.4 °F 27.0 °F 88% 30.00 in 10.0 mi North 8.1 mph - N/A   Partly Cloudy
1:56 AM 30.9 °F 22.8 °F 28.9 °F 92% 30.00 in 10.0 mi North 9.2 mph - N/A   Partly Cloudy
2:56 AM 30.0 °F 22.4 °F 27.0 °F 88% 30.01 in 10.0 mi North 8.1 mph - N/A   Clear
4:56 AM 32.0 °F 24.2 °F 26.1 °F 79% 30.02 in 10.0 mi North 9.2 mph - N/A   Mostly Cloudy
5:56 AM 32.0 °F 25.6 °F 28.0 °F 85% 30.03 in 10.0 mi North 6.9 mph - N/A   Mostly Cloudy
6:56 AM 30.0 °F 22.4 °F 25.0 °F 82% 30.03 in 10.0 mi North 8.1 mph - N/A   Clear
7:56 AM 30.0 °F 22.4 °F 26.1 °F 85% 30.04 in 10.0 mi NNE 8.1 mph - N/A   Partly Cloudy
8:56 AM 30.9 °F 23.5 °F 26.1 °F 82% 30.05 in 10.0 mi North 8.1 mph - N/A   Clear
9:56 AM 30.0 °F 21.7 °F 26.1 °F 85% 30.06 in 10.0 mi NNE 9.2 mph - N/A   Clear
10:56 AM 30.9 °F 24.3 °F 27.0 °F 85% 30.07 in 10.0 mi NNE 6.9 mph - N/A   Scattered Clouds
11:56 AM 36.0 °F 30.3 °F 30.0 °F 79% 30.08 in 10.0 mi NNE 6.9 mph - N/A   Mostly Cloudy
12:56 PM 37.9 °F 32.7 °F 28.9 °F 70% 30.09 in 10.0 mi NE 6.9 mph - N/A   Scattered Clouds
1:56 PM 37.0 °F 33.3 °F 28.9 °F 73% 30.09 in 10.0 mi NNE 4.6 mph - N/A   Partly Cloudy
2:56 PM 39.0 °F 34.0 °F 28.0 °F 65% 30.09 in 10.0 mi NE 6.9 mph - N/A   Mostly Cloudy
3:56 PM 39.0 °F 33.4 °F 30.0 °F 70% 30.09 in 10.0 mi ENE 8.1 mph - N/A   Clear
4:56 PM 37.9 °F 33.5 °F 28.9 °F 70% 30.08 in 10.0 mi NNE 5.8 mph - N/A   Partly Cloudy
5:56 PM 36.0 °F 29.6 °F 30.0 °F 79% 30.10 in 10.0 mi North 8.1 mph - N/A   Scattered Clouds
6:56 PM 35.1 °F 27.9 °F 30.0 °F 82% 30.11 in 10.0 mi NNE 9.2 mph - N/A   Partly Cloudy
7:56 PM 34.0 °F 26.0 °F 30.9 °F 89% 30.11 in 10.0 mi North 10.4 mph - N/A   Clear
8:56 PM 36.0 °F 27.5 °F 32.0 °F 86% 30.12 in 10.0 mi NNE 12.7 mph - N/A   Scattered Clouds
9:30 PM 35.6 °F 27.1 °F 32.0 °F 87% 30.12 in 10.0 mi ENE 12.7 mph - N/A Rain Light Rain
9:56 PM 34.0 °F 24.2 °F 32.0 °F 92% 30.14 in 10.0 mi NE 15.0 mph - N/A Rain Light Rain
10:56 PM 35.1 °F 25.5 °F 33.1 °F 92% 30.14 in 8.0 mi East 15.0 mph - N/A Snow Light Snow
11:22 PM 35.6 °F 27.1 °F 33.8 °F 93% 30.14 in 10.0 mi East 12.7 mph - N/A   Overcast
11:40 PM 35.6 °F 27.5 °F 33.8 °F 93% 30.14 in 10.0 mi East 11.5 mph - N/A   Overcast
11:56 PM 36.0 °F 27.5 °F 33.1 °F 89% 30.14 in 10.0 mi ENE 12.7 mph - N/A   Overcast